WESTFORD NEEDLES, 21660

Orbit data source: Space-Track

WESTFORD NEEDLES, 21660 is space debris in LEO originally from a launch on Thu, 09 May 1963 UTC launched from the Air Force Western Test Range (AFWTR). Debris objects in space refer to the collection of defunct objects orbiting the Earth. Examples of debris include non-operational satellites, rocket bodies, and fragments generated from explosions, collisions, or faulty payload assembly.

Loading next visibility...
Identifier
21660, 1963-014FG
Orbit
LEO
Country
Flag of USUS
Related business
Manufacturer
Unknown
Mission
Spacecraft
Bus & Motor
Unknown
Mass
Unknown
Launch date (UTC)
1963-05-09 (62 years ago)
Launch vehicle
Unknown
Launch site
Air Force Western Test Range (AFWTR)
Object type
Payload
Rocket body
Debris
Shape & HBR
Unknown shape, 0.2 m
Radar Cross Section
Medium (>0.1 m² and <1 m²)

Expand to show TLE details & history
Last TLE update: 3 weeks ago

TLE from 3 weeks ago
0 WESTFORD NEEDLES
1 21660U 63014FG  25264.04785381 -.00000028  00000-0 -34635-2 0  9999
2 21660  86.6882 295.6221 1521713 306.1407  59.5200  8.78083167 42086
Epoch: 2025-09-21T01:08Z
TLE epoch observation values (Epoch: 2025-09-21T01:08:54.569Z)
Latitude
22.02635°
Longitude
-80.44148°
Altitude
2,972.55 km
Speed
6.718 km/s
True Right ascension
19h 47m 49s
True Declination
21° 56' 07"
Sunlit
Object was in daylight at epoch
Visualization orbit readout
Latitude
Unknown
Longitude
Unknown
Altitude
Unknown
Speed
Unknown
Apparent Right ascension
Unknown
Apparent Declination
Unknown
Sunlit
N/A
Visualization observer readout
Local Sidereal Time
02:42:37
Azimuth
Unknown
Elevation
Unknown
Doppler factor
Unknown
Orbital elements
Apogee altitude
5,054.046 km
Perigee altitude
2,034.269 km
Semi-major axis
9,922.295 km
Eccentricity
0.15217
Inclination
86.6882°
RAAN
295.6221°
Arg. of periapsis
306.1407°
True anomaly
75.91568°
Mean anomaly
59.52°
Eccentric anomaly
67.57973°
Mean motion
2.19596 °/min
Orbital period
163.94 mins
BSTAR
-0.0034635

Documentation

Showing up to 5 results
|